{"data":{"norad_id":65055,"intl_designator":"2025-164A","name":"PRSC-S1","alt_names":[],"object_type":"PAYLOAD","status":"ACTIVE","operator":null,"country":"PAKI","launch_date":"2025-07-31","launch_site_code":"XICLF","launch_vehicle":null,"mission":null,"orbit_class":"UNKNOWN","rcs_meters":null,"size_class":null,"mass_kg":null,"dimensions":null,"purposes":["earth_obs"],"wikipedia_slug":null,"has_3d_model":false,"image_url":null,"decayed_at":null,"tle_current":{"epoch":"2026-09-19T23:34:17.411808Z","epoch_age_seconds":62963,"freshness":"FRESH","line1":"1 65055U 25164A   26262.98214597  .00002620  00000+0  18310-3 0  9997","line2":"2 65055  41.1294 113.6562 0008111 277.4235  82.5657 15.07090070 62739","mean_motion":15.0709007,"eccentricity":0.0008111,"inclination_deg":41.1294,"raan_deg":113.6562,"arg_perigee_deg":277.4235,"mean_anomaly_deg":82.5657,"bstar":0.0001831,"rev_number":6273,"period_min":95.548370244388,"perigee_km":539.48196440036,"apogee_km":550.71283524375,"semimajor_km":6923.2343998221,"source":"CELESTRAK","updated_at":"2026-09-20T09:00:34.133018Z"}}}